Regional Weather Roundup
Issued by NWS

Home | Current Version | Previous Version | Text Only | Print | Product List | Glossary Off
Versions: 1 2 3 4 5 6 7 8 9 10 11 12 13 14 15 16 17 18 19 20 21 22 23 24 25 26 27 28 29 30 31 32 33 34 35 36 37 38 39 40 41 42 43 44 45 46 47 48 49 50

000
ASUS45 KABQ 032001
RWRNM
NEW MEXICO REGIONAL WEATHER ROUNDUP
NATIONAL WEATHER SERVICE ALBUQUERQUE NM
200 PM MDT THU SEP 03 2015

NOTE: "FAIR" MEANS FEW OR NO CLOUDS BELOW 12,000 FEET AGL WITH NO
       SIGNIFICANT WEATHER OR OBSTRUCTIONS TO VISION.

      THIS PRODUCT IS RELEASED AS TWO VERSIONS.  ONE VERSION NEAR
      THE TOP OF THE HOUR CONTAINING PRELIMINARY DATA FROM ALBUQUERQUE
      AND OTHER STATIONS.  A FINAL VERSION WITH ADDITIONAL DATA IS
      ISSUED ABOUT 10 MINUTES AFTER THE HOUR.

NMZ501-503-504-510>518-032100-
NORTHWEST PLATEAU/NORTHCENTRAL MOUNTAINS

CITY           SKY/WX    TMP DP  RH WIND       PRES   REMARKS
FARMINGTON     SUNNY     83  43  24 SW8G17    30.08F
SANTA FE       MOSUNNY   82  42  24 W9G22     30.13F
TAOS           MOSUNNY   73  39  29 N3        30.21F
ANGEL FIRE     FAIR      65  46  50 W14G20    30.28F

$$
NMZ402-403-502-505>509-032100-
WESTCENTRAL MOUNTAINS/SOUTHWEST MOUNTAINS

CITY           SKY/WX    TMP DP  RH WIND       PRES   REMARKS
GALLUP         SUNNY     80  43  26 W9G21     30.17F
GRANTS         PTSUNNY   79  43  27 N6        30.19F
SILVER CITY      N/A     81  50  34 NW6       30.13F

$$
NMZ407-409-411-412-032100-
SOUTHERN DESERTS

CITY           SKY/WX    TMP DP  RH WIND       PRES   REMARKS
DEMING         PTSUNNY   82  54  37 SW7       30.07F
HOLLOMAN AFB   PTSUNNY   88  46  23 SW6       30.01F
ALAMOGORDO     PTSUNNY   86  45  23 NE5       30.04F
T OR C         MOSUNNY   85  50  29 VRB3      30.05F

$$
NMZ519>523-032100-
CENTRAL VALLEYS/CENTRAL HIGHLANDS

CITY           SKY/WX    TMP DP  RH WIND       PRES   REMARKS
ALBUQUERQUE    PTSUNNY   82  46  28 CALM      30.11F
DOUBLE EAGLE   PTSUNNY   81  46  30 N9        30.14F
MORIARTY ARPT  FAIR      82  40  21 NW8G22    30.16F
CLINES CORNERS MOSUNNY   77  45  32 W12G25    30.19F
BELEN          FAIR      84  44  23 SW6       30.09F
SOCORRO        NOT AVBL

$$
NMZ524>526-539-540-032100-
SOUTHCENTRAL MOUNTAINS

CITY           SKY/WX    TMP DP  RH WIND       PRES   REMARKS
RUIDOSO        NOT AVBL

$$
NMZ527>531-032100-
NORTHEAST HIGHLANDS/NORTHEAST PLAINS

CITY           SKY/WX    TMP DP  RH WIND       PRES   REMARKS
LAS VEGAS      SUNNY     81  43  26 SW18G26   30.13F
RATON          MOSUNNY   85  46  25 S16       30.05F
CLAYTON        PTSUNNY   87  49  26 SW22G28   30.00F

$$
NMZ532>537-032100-
EASTCENTRAL PLAINS

CITY           SKY/WX    TMP DP  RH WIND       PRES   REMARKS
TUCUMCARI      MOSUNNY   94  46  19 W13G18    29.95F
CANNON AFB     SUNNY     92  48  22 SW12G17   30.00F
CLOVIS AIRPORT SUNNY     93  48  21 S15       30.01F

$$
NMZ028-029-538-032100-
SOUTHEAST PLAINS

CITY           SKY/WX    TMP DP  RH WIND       PRES   REMARKS
ROSWELL        SUNNY     95  49  20 S10       29.96F
ARTESIA        SUNNY     93  52  24 E12       29.96F
CARLSBAD       SUNNY     96  49  20 E9G18     29.94F
HOBBS          SUNNY     90  52  27 SE12G20   30.01F


$$


USA.gov is the U.S. government's official web portal to all federal, state and local government web resources and services.